ASA651 PASI-KSEA

Flight info

Callsign ASA651
Flight time N/A
Altitude 35000
Route PASI/11 N0448F350 BKA4 BKA DCT VIXOR MARNR8 KSEA/16R
Aircraft B738/M-SDE2E3FGHIRWXY/L

Departure

Time 2026-05-06 16:36
Airport Sitka Rocky Gutierrez Airport (PASI)

Arrival

Time N/A
Airport Seattle–Tacoma International Airport (KSEA)
Time Latitude Longitude Altitude Speed Heading
2026-05-06 16:21 57.05236 -135.36604 39 ft 0 kts 76°
2026-05-06 16:28 57.05234 -135.36619 39 ft 2 kts 76°
2026-05-06 16:28 57.05231 -135.36644 39 ft 2 kts 76°
2026-05-06 16:28 57.05228 -135.36669 39 ft 2 kts 76°
2026-05-06 16:28 57.05225 -135.36693 37 ft 1 kts 74°
2026-05-06 16:29 57.05223 -135.36703 38 ft 1 kts 56°
2026-05-06 16:29 57.05219 -135.36712 37 ft 1 kts 37°
2026-05-06 16:29 57.05214 -135.36718 37 ft 1 kts 20°
2026-05-06 16:29 57.05209 -135.36722 34 ft 1 kts
2026-05-06 16:30 57.05200 -135.36723 35 ft 1 kts 352°
2026-05-06 16:30 57.05193 -135.36721 36 ft 2 kts 343°
2026-05-06 16:30 57.05181 -135.36712 36 ft 1 kts 332°
2026-05-06 16:30 57.05174 -135.36705 35 ft 1 kts 327°
2026-05-06 16:31 57.05170 -135.36700 35 ft 1 kts 324°
2026-05-06 16:31 57.05165 -135.36694 36 ft 1 kts 321°
2026-05-06 16:31 57.05161 -135.36687 36 ft 1 kts 319°
2026-05-06 16:31 57.05158 -135.36683 36 ft 0 kts 317°
2026-05-06 16:32 57.05159 -135.36684 36 ft 1 kts 317°
2026-05-06 16:33 57.05184 -135.36728 35 ft 9 kts 315°
2026-05-06 16:33 57.05244 -135.36836 36 ft 13 kts 315°
2026-05-06 16:33 57.05309 -135.36952 36 ft 13 kts 315°
2026-05-06 16:34 57.05395 -135.37190 33 ft 7 kts 249°
2026-05-06 16:34 57.05371 -135.37236 33 ft 5 kts 220°
2026-05-06 16:34 57.05342 -135.37273 32 ft 5 kts 199°
2026-05-06 16:34 57.05327 -135.37264 32 ft 4 kts 154°
2026-05-06 16:35 57.05317 -135.37247 30 ft 0 kts 134°
2026-05-06 16:35 57.05307 -135.37227 30 ft 19 kts 134°
2026-05-06 16:35 57.04997 -135.36673 30 ft 105 kts 136°
2026-05-06 16:36 57.04303 -135.35425 176 ft 165 kts 135°
2026-05-06 16:36 57.03418 -135.34001 1065 ft 180 kts 147°
2026-05-06 16:36 57.02231 -135.33451 2358 ft 182 kts 182°
2026-05-06 16:36 57.00933 -135.34065 2775 ft 206 kts 212°
2026-05-06 16:37 56.99905 -135.36009 3184 ft 220 kts 239°
2026-05-06 16:37 56.99136 -135.38488 3864 ft 228 kts 241°
2026-05-06 16:37 56.98329 -135.41171 4364 ft 249 kts 240°
2026-05-06 16:37 56.97487 -135.43977 5271 ft 253 kts 240°
2026-05-06 16:38 56.96639 -135.46806 6262 ft 254 kts 240°
2026-05-06 16:38 56.95553 -135.49344 7155 ft 255 kts 219°
2026-05-06 16:38 56.94001 -135.50904 8077 ft 257 kts 199°
2026-05-06 16:38 56.92283 -135.51823 9001 ft 258 kts 197°
2026-05-06 16:39 56.90537 -135.52727 9911 ft 261 kts 197°
2026-05-06 16:39 56.88769 -135.53588 10655 ft 270 kts 191°
2026-05-06 16:39 56.86798 -135.53481 10866 ft 301 kts 172°
2026-05-06 16:39 56.84736 -135.52170 11172 ft 327 kts 155°
2026-05-06 16:40 56.82926 -135.49498 11815 ft 341 kts 140°
2026-05-06 16:40 56.81257 -135.46364 12609 ft 347 kts 138°
2026-05-06 16:40 56.79604 -135.43122 13382 ft 352 kts 137°
2026-05-06 16:40 56.77940 -135.39822 14147 ft 355 kts 137°
2026-05-06 16:41 56.76255 -135.36490 14817 ft 360 kts 138°
2026-05-06 16:41 56.74544 -135.33126 15485 ft 363 kts 138°
2026-05-06 16:41 56.72812 -135.29742 16153 ft 367 kts 138°
2026-05-06 16:41 56.71056 -135.26332 16856 ft 371 kts 139°
2026-05-06 16:42 56.69276 -135.22889 17472 ft 376 kts 139°
2026-05-06 16:42 56.67469 -135.19407 18111 ft 381 kts 139°
2026-05-06 16:42 56.65640 -135.15891 18707 ft 385 kts 139°
2026-05-06 16:42 56.63817 -135.12392 19296 ft 387 kts 139°
2026-05-06 16:43 56.61960 -135.08835 19904 ft 390 kts 139°
2026-05-06 16:43 56.60086 -135.05250 20483 ft 392 kts 139°
2026-05-06 16:43 56.58198 -135.01647 21045 ft 396 kts 139°
2026-05-06 16:43 56.56295 -134.98020 21600 ft 398 kts 139°
2026-05-06 16:44 56.54384 -134.94352 22133 ft 403 kts 138°
2026-05-06 16:44 56.52519 -134.90408 21207 ft 417 kts 135°
2026-05-06 16:44 56.50722 -134.86350 20417 ft 409 kts 133°
2026-05-06 16:44 56.49274 -134.81897 19420 ft 417 kts 115°
2026-05-06 16:45 56.48644 -134.76748 18487 ft 424 kts 96°
2026-05-06 16:45 56.48895 -134.71609 17452 ft 428 kts 78°
2026-05-06 16:45 56.50030 -134.66632 16448 ft 429 kts 60°
2026-05-06 16:45 56.51870 -134.62401 15526 ft 427 kts 45°
2026-05-06 16:46 56.54111 -134.58999 14975 ft 413 kts 35°
2026-05-06 16:46 56.56563 -134.56440 14056 ft 407 kts 23°
2026-05-06 16:46 56.59275 -134.54738 12285 ft 421 kts 13°
2026-05-06 16:46 56.62183 -134.53737 10843 ft 426 kts
2026-05-06 16:47 56.65095 -134.53361 10147 ft 410 kts 358°
2026-05-06 16:47 56.67287 -134.53613 9882 ft 388 kts 351°
2026-05-06 16:47 56.69867 -134.54481 9393 ft 368 kts 342°
2026-05-06 16:47 56.72243 -134.56093 8376 ft 364 kts 332°
2026-05-06 16:48 56.74468 -134.58342 7140 ft 368 kts 325°
2026-05-06 16:48 56.76538 -134.61051 6148 ft 362 kts 318°
2026-05-06 16:48 56.78306 -134.64022 5592 ft 342 kts 313°
2026-05-06 16:48 56.79961 -134.67132 5182 ft 327 kts 314°
2026-05-06 16:49 56.81543 -134.69838 4905 ft 298 kts 316°
2026-05-06 16:49 56.83056 -134.72261 4463 ft 280 kts 317°
2026-05-06 16:49 56.84477 -134.74486 4322 ft 256 kts 317°
2026-05-06 16:49 56.85765 -134.76521 4358 ft 233 kts 316°
2026-05-06 16:50 56.86922 -134.78418 4395 ft 217 kts 315°
2026-05-06 16:50 56.88010 -134.80302 4277 ft 211 kts 313°
2026-05-06 16:50 56.89010 -134.82129 4408 ft 197 kts 311°
2026-05-06 16:50 56.89641 -134.83307 4371 ft 196 kts 309°
2026-05-06 16:51 56.90455 -134.85309 4316 ft 197 kts 297°
2026-05-06 16:51 56.91104 -134.87518 4290 ft 196 kts 294°
2026-05-06 16:51 56.91649 -134.89836 4643 ft 207 kts 287°
2026-05-06 16:51 56.92038 -134.92472 5064 ft 225 kts 279°
2026-05-06 16:52 56.92410 -134.95456 5107 ft 253 kts 284°
2026-05-06 16:52 56.92949 -134.98476 4982 ft 244 kts 284°
2026-05-06 16:52 56.93362 -135.01466 4447 ft 249 kts 280°
2026-05-06 16:52 56.93742 -135.04603 4164 ft 245 kts 283°
2026-05-06 16:53 56.94210 -135.07597 3770 ft 245 kts 288°
2026-05-06 16:53 56.94952 -135.10345 3731 ft 233 kts 301°
2026-05-06 16:53 56.95907 -135.12656 3641 ft 224 kts 309°
2026-05-06 16:53 56.96954 -135.14707 3424 ft 219 kts 311°
2026-05-06 16:54 56.97977 -135.16773 3046 ft 216 kts 309°
2026-05-06 16:54 56.98913 -135.18845 2558 ft 207 kts 308°
2026-05-06 16:54 56.99766 -135.20957 1921 ft 206 kts 302°
2026-05-06 16:54 57.00487 -135.23230 1319 ft 207 kts 298°
2026-05-06 16:55 57.01138 -135.25599 1001 ft 204 kts 297°
2026-05-06 16:55 57.01747 -135.27871 846 ft 195 kts 291°
2026-05-06 16:55 57.02188 -135.30187 569 ft 190 kts 289°
2026-05-06 16:55 57.02695 -135.32273 525 ft 158 kts 304°
2026-05-06 16:56 57.03306 -135.33581 509 ft 125 kts 316°
2026-05-06 16:56 57.03905 -135.34730 63 ft 123 kts 319°
2026-05-06 16:56 57.04433 -135.35641 27 ft 76 kts 316°
2026-05-06 16:56 57.04757 -135.36152 28 ft 32 kts 323°
2026-05-06 16:57 57.04775 -135.36168 28 ft 0 kts 345°